Location: Cheching
(60.0667°N, 164.2167°W)
Time: 16:29:45
(UTC+00:00)

ISS - Visible Passes

Search period start: 16 May 2021 00:00
Search period end: 26 May 2021 00:00
Orbit: 417 x 422 km, 51.6° (Epoch: 15 May)

Date Brightness Start Highest point End Pass type
(mag) Time Alt. Az. Time Alt. Az. Time Alt. Az.
16 May -2.4 10:06:53 10° SW 10:09:23 19° S 10:11:53 10° SE visible
16 May -2.2 11:43:08 10° WSW 11:45:25 17° SSW 11:47:42 10° SSE visible
17 May -2.2 09:19:44 10° SW 09:22:07 18° S 09:24:30 10° SE visible
17 May -2.3 10:55:43 10° SW 10:58:10 19° S 10:59:59 13° SSE visible
18 May -2.3 10:08:22 10° SW 10:10:54 20° S 10:13:10 11° SE visible
18 May -1.7 11:45:18 10° SW 11:46:04 12° SW 11:46:04 12° SW visible
19 May -2.3 09:21:04 10° SW 09:23:37 20° S 09:26:09 10° SE visible
19 May -2.0 10:57:36 10° SW 10:59:37 15° SSW 10:59:48 15° SSW visible
20 May -2.1 10:10:05 10° WSW 10:12:22 17° SSW 10:13:40 14° SSE visible
21 May -2.2 09:22:39 10° SW 09:25:05 19° S 09:27:32 10° SE visible
22 May -1.7 10:12:13 10° SW 10:13:45 13° SSW 10:14:29 12° S visible
23 May -1.8 09:24:31 10° SW 09:26:31 15° SSW 09:28:28 10° SSE visible
25 May -1.4 09:27:31 10° SW 09:27:50 10° SSW 09:28:08 10° SSW visible
